Aérodrome :
LOGIN :

S'inscrire | Disclaimer

   EN    FR    IT 

 










Légende :    VFR   VFR Marginal   IFR   IFR Intensif   IFR Très Intensif
Visi : 
Plafond : 
>= 8 km
>= 3000ft
5 à 8 km
1000 à 3000 ft
1500m à 5 km
500 à 1000 ft
800 à 1500m
200 à 500 ft
< 800m
< 200 ft
Symboles :   Orages  Brouillard  Fortes neiges  Fortes précipitations  Vent > 20 kt
SIGMETs :   Divers  Orages  Givrage  Turbulence  Onde Orograph.  Cendres Volcan.







- Altitude de l'aérodrome : 675 ft
- Code IATA : RZE


EPRZ - Rzeszow-Jasionka

DERNIER METAR :
  • 171200Z 13005KT 100V170 CAVOK 22/04 Q1022

METARs EXPIRÉS :
  • 171130Z 19006KT 150V210 CAVOK 22/05 Q1022
  • 171100Z 18007KT CAVOK 21/05 Q1022
  • 171030Z 19005KT CAVOK 20/05 Q1022
  • 171000Z VRB02KT CAVOK 20/06 Q1023
  • 170930Z 18003KT 120V220 CAVOK 18/06 Q1023

TAF TAF EPRZ
Valide du 17 à 12h jusqu'au 18 à 12h UTC


171130Z 1712/1812 18006KT CAVOK
PROB30 1802/1806 2000 BR
Pas de NOTAMs connus pour ce terrain.



MET'MAP, la Météo Aéronautique d'un coup d'oeil ! - Copyright ORBIFLY Décembre 2007 - Disclaimer

ORBIFLY MET'MAP TEAM :

Programmation & Développement : Alexandra Zaïnal
Conception & Développement : Baudouin d'Aumeries
Co-Programmation & Développement : Marc-Olivier Méhu
Soutien technique & logistique : Manuel Goepfert

Contact : metmap@orbifly.com




SOURCES & CREDITS :

   NOAA